Vertical_Velocity
-1 2 -1 -6 -4 0 2 -1 -1 1 -1 0 -0 -1 -3 1 2 -11 2 -3 6 4 2 3 3 5 1
1 0 -5 -3 2 -5 -1 -5 -2 -1 -3 -0 10 4 4 3 2 0 6 3 6 4 4 4 -2 -0 5
-2 2 -0 3 0 -2 -5 -6 -4 -1 -1 3 1 2 -4 -3 8 2 -2 -6 -8 3 12 9 0 -3 2
-1 -1 -4 2 1 -1 -5 -6 -3 -0 -0 -1 -3 -7 11 -3 6 8 1 -1 0 3 9 5 14 -7 0
2 1 -4 -3 -3 4 -6 -1 3 2 -5 -10 -1 4 -1 1 -1 -5 -1 3 10 -4 -3 -0 1 5 -2
2 -1 2 -2 -1 -1 -0 -6 -7 4 -8 -4 -6 8 5 -1 7 1 2 -0 7 -8 5 -3 3 9 8
-1 0 -0 1 3 -5 -4 -5 1 6 -4 -9 -3 -1 -3 4 2 6 -3 -4 -6 -11 23 7 -1 0 15
0 -3 -3 -3 -2 4 -5 -3 1 7 5 -15 -3 -4 3 8 -9 3 1 -4 7 -5 -1 -1 -0 -1 -2
-0 2 2 3 2 2 -6 -8 -5 -9 -2 -5 -2 -11 1 -3 0 4 4 2 -2 -2 1 3 5 4 -5
-8 8 0 -1 -5 5 -2 3 9 -0 2 -6 11 0 -2 2 11 -3 -4 -5 -8 -6 -1 1 -2 4 5
6 5 3 2 2 4 4 7 6 4 -0 -3 3 4 -7 -7 5 7 -2 2 0 2 2 3 1 -5 -4
5 8 9 6 2 2 -2 -3 -2 -0 -0 -2 -1 -4 -7 -4 -2 7 7 7 -3 7 4 6 5 4 -3
2 2 1 -1 -2 -2 -0 -1 -1 -1 -3 -4 -4 -2 -4 -5 -10 2 -10 6 3 -7 -2 -3 -2 4 -2
-2 -2 -1 1 1 0 -0 2 1 -0 -3 -5 -6 -6 -3 -4 -8 0 2 -20 3 -3 -10 -4 4 3 -3
1 1 0 0 1 0 -3 -3 -2 2 3 -1 -3 -2 -1 -5 -8 -9 -3 -4 -4 -13 -2 -12 -10 -1 -4
-1 -1 -2 -1 1 2 1 -1 -2 -3 -3 -5 -6 -5 -2 6 -8 -8 -6 -14 -4 -8 -5 -10 -20 3 0
2 2 1 2 2 -1 -4 -2 -3 -3 -4 -5 -4 -9 -8 1 2 -9 -19 8 -10 -6 -4 3 -14 -2 -2
Height
3042 3048 3052 3054 3057 3057 3057 3059 3060 3063 3063 3064 3065 3066 3067 3069 3071 3072 3073 3075 3075 3075 3075 3075 3074 3074 3073
3034 3037 3040 3044 3044 3044 3044 3045 3047 3050 3054 3054 3054 3056 3056 3057 3058 3060 3060 3062 3064 3064 3064 3064 3063 3064 3065
3021 3027 3029 3031 3032 3034 3035 3035 3035 3038 3041 3042 3043 3045 3045 3045 3044 3046 3048 3048 3050 3053 3053 3053 3053 3053 3055
3009 3014 3016 3019 3022 3023 3026 3026 3026 3027 3029 3031 3031 3032 3032 3034 3033 3034 3035 3038 3036 3038 3040 3041 3040 3040 3042
3000 3002 3004 3007 3011 3014 3014 3015 3014 3015 3015 3017 3019 3019 3020 3021 3023 3023 3024 3024 3024 3022 3025 3027 3028 3027 3029
2991 2991 2994 2996 2999 3001 3001 2999 3000 3001 3004 3006 3008 3008 3011 3009 3012 3012 3011 3010 3010 3010 3010 3012 3014 3015 3015
2981 2983 2984 2987 2988 2989 2991 2991 2991 2993 2992 2993 2995 2994 3000 2998 2999 2998 2998 2997 2997 2997 2997 2997 2999 3001 3002
2974 2973 2975 2977 2980 2980 2981 2980 2982 2983 2982 2978 2983 2983 2985 2984 2986 2986 2986 2987 2986 2987 2986 2986 2986 2986 2986
2964 2964 2966 2968 2969 2971 2970 2971 2971 2972 2973 2970 2970 2969 2969 2970 2973 2974 2974 2975 2975 2975 2975 2974 2973 2972 2971
2955 2955 2957 2958 2960 2960 2960 2961 2960 2960 2961 2961 2958 2958 2955 2956 2958 2959 2960 2960 2959 2958 2957 2957 2956 2955 2954
2945 2946 2946 2948 2950 2951 2951 2951 2951 2951 2950 2949 2948 2948 2944 2938 2937 2941 2941 2939 2939 2938 2938 2938 2938 2937 2934
2939 2940 2941 2942 2942 2942 2943 2943 2942 2941 2939 2935 2933 2931 2927 2924 2922 2920 2920 2921 2918 2914 2912 2910 2909 2910 2909
2933 2933 2933 2933 2933 2932 2931 2930 2928 2926 2924 2921 2917 2914 2911 2907 2903 2903 2902 2902 2896 2892 2889 2886 2883 2881 2879
2925 2925 2925 2924 2923 2922 2921 2919 2918 2915 2912 2909 2906 2900 2896 2894 2889 2888 2883 2877 2876 2871 2862 2858 2857 2854 2851
2918 2918 2918 2917 2916 2914 2913 2911 2909 2907 2905 2900 2896 2891 2886 2882 2879 2877 2872 2867 2861 2854 2845 2835 2832 2831 2830
2911 2911 2911 2910 2908 2906 2904 2901 2898 2894 2891 2887 2884 2880 2875 2872 2869 2863 2858 2852 2848 2840 2831 2818 2812 2812 2808
2905 2904 2902 2900 2898 2897 2894 2891 2888 2884 2881 2876 2872 2866 2862 2861 2860 2852 2846 2841 2831 2824 2814 2805 2795 2791 2785